Location: Sungai Dangang
(2.7500°N, 113.8333°E)
Time: 05:06:19
(UTC+00:00)

Cosmos 2322 - Pass Details

Date: 16 May 2021
Orbit: 842 x 853 km, 71.0° (Epoch: 16 June)

Event Time Altitude Azimuth Distance (km) Brightness Sun altitude
Exits shadow 20:17:17 45° 334° (NNW) 1,142 4.3 -28.0°
Drops below altitude 10° 20:21:24 10° 3° (N) 2,454 6.4 -27.0°
Sets 20:23:53 0° 8° (N) 3,385 7.2 -26.5°
